HAZ3754 ZHCC-ZGSZ

Flight info

Callsign HAZ3754
Flight time 1h 46m
Altitude 36100
Route DUD9W DUDBI W37 NODIM/K0885S1160 W37 GUSIV/K0887S1130 W37 PEXID/K0889S1160 W37 OMBEB/K0891S1130 R473 NNX/K0893S1160 R473 NOLON W90 POU/K0893S1130 W7 SAREX SAREX4
Aircraft B77W/H-SDE1E2E3FGHIJ2J3J4J5M1RWXY/LB1D1

Departure

Time 2026-05-06 03:14
Airport Zhengzhou Xinzheng International Airport (ZHCC)

Arrival

Time 2026-05-06 05:00
Airport Shenzhen Bao'an International Airport (ZGSZ)
Time Latitude Longitude Altitude Speed Heading
2026-05-06 02:56 34.53229 113.85049 501 ft 0 kts 230°
2026-05-06 03:06 34.53234 113.85056 501 ft 2 kts 230°
2026-05-06 03:06 34.53244 113.85070 501 ft 2 kts 230°
2026-05-06 03:06 34.53254 113.85085 501 ft 2 kts 230°
2026-05-06 03:06 34.53262 113.85095 501 ft 0 kts 230°
2026-05-06 03:07 34.53271 113.85107 501 ft 2 kts 211°
2026-05-06 03:07 34.53285 113.85113 501 ft 2 kts 184°
2026-05-06 03:07 34.53299 113.85111 501 ft 2 kts 160°
2026-05-06 03:07 34.53313 113.85102 501 ft 2 kts 135°
2026-05-06 03:08 34.53321 113.85088 501 ft 0 kts 112°
2026-05-06 03:08 34.53323 113.85083 501 ft 0 kts 111°
2026-05-06 03:08 34.53323 113.85084 501 ft 0 kts 111°
2026-05-06 03:09 34.53313 113.85114 501 ft 9 kts 111°
2026-05-06 03:10 34.53296 113.85211 499 ft 12 kts 68°
2026-05-06 03:10 34.53362 113.85227 499 ft 10 kts 314°
2026-05-06 03:10 34.53394 113.85151 500 ft 11 kts 291°
2026-05-06 03:10 34.53441 113.85013 503 ft 20 kts 294°
2026-05-06 03:11 34.53491 113.84862 505 ft 17 kts 291°
2026-05-06 03:11 34.53531 113.84740 508 ft 14 kts 292°
2026-05-06 03:11 34.53590 113.84574 511 ft 26 kts 293°
2026-05-06 03:11 34.53658 113.84375 515 ft 23 kts 292°
2026-05-06 03:12 34.53716 113.84203 515 ft 21 kts 292°
2026-05-06 03:12 34.53764 113.84061 514 ft 13 kts 294°
2026-05-06 03:12 34.53837 113.84012 512 ft 13 kts 17°
2026-05-06 03:12 34.53920 113.84056 512 ft 11 kts 36°
2026-05-06 03:13 34.53928 113.84140 512 ft 10 kts 114°
2026-05-06 03:13 34.53899 113.84219 513 ft 13 kts 113°
2026-05-06 03:13 34.53777 113.84580 511 ft 80 kts 112°
2026-05-06 03:13 34.53473 113.85469 497 ft 143 kts 112°
2026-05-06 03:14 34.53016 113.86784 576 ft 186 kts 116°
2026-05-06 03:14 34.52506 113.88230 1185 ft 192 kts 117°
2026-05-06 03:14 34.52017 113.89708 1944 ft 191 kts 117°
2026-05-06 03:14 34.51476 113.91303 2156 ft 215 kts 118°
2026-05-06 03:15 34.50872 113.93070 2439 ft 234 kts 118°
2026-05-06 03:15 34.50224 113.94965 2779 ft 253 kts 117°
2026-05-06 03:15 34.49524 113.97021 3271 ft 267 kts 117°
2026-05-06 03:15 34.48808 113.99124 3968 ft 271 kts 117°
2026-05-06 03:16 34.48076 114.01267 4650 ft 275 kts 117°
2026-05-06 03:16 34.47330 114.03388 5294 ft 279 kts 122°
2026-05-06 03:16 34.46124 114.05161 5920 ft 275 kts 147°
2026-05-06 03:16 34.44409 114.06124 6534 ft 273 kts 170°
2026-05-06 03:17 34.42535 114.06520 7204 ft 274 kts 175°
2026-05-06 03:17 34.40651 114.06783 7859 ft 276 kts 177°
2026-05-06 03:17 34.38688 114.07029 8455 ft 281 kts 177°
2026-05-06 03:17 34.36709 114.07276 9082 ft 284 kts 177°
2026-05-06 03:18 34.34757 114.07521 9645 ft 288 kts 177°
2026-05-06 03:18 34.32742 114.07822 9775 ft 292 kts 169°
2026-05-06 03:18 34.30848 114.08672 9800 ft 294 kts 158°
2026-05-06 03:18 34.28995 114.09744 9802 ft 295 kts 156°
2026-05-06 03:19 34.27148 114.10834 9801 ft 295 kts 157°
2026-05-06 03:19 34.25294 114.11920 9799 ft 295 kts 157°
2026-05-06 03:19 34.23409 114.13013 9946 ft 305 kts 157°
2026-05-06 03:19 34.21486 114.14122 10444 ft 313 kts 157°
2026-05-06 03:20 34.17352 114.16499 11047 ft 346 kts 157°
2026-05-06 03:20 34.15121 114.17782 11361 ft 363 kts 156°
2026-05-06 03:20 34.12823 114.19102 11689 ft 378 kts 156°
2026-05-06 03:21 34.10397 114.20496 12068 ft 391 kts 156°
2026-05-06 03:21 34.07921 114.21918 12632 ft 399 kts 156°
2026-05-06 03:21 34.05370 114.23383 13364 ft 403 kts 156°
2026-05-06 03:21 34.02787 114.24865 14143 ft 407 kts 156°
2026-05-06 03:22 34.00200 114.26349 15026 ft 409 kts 156°
2026-05-06 03:22 33.97613 114.27832 15950 ft 410 kts 157°
2026-05-06 03:22 33.95036 114.29308 16769 ft 413 kts 157°
2026-05-06 03:22 33.92394 114.30820 17529 ft 418 kts 157°
2026-05-06 03:23 33.89754 114.32330 18308 ft 421 kts 158°
2026-05-06 03:23 33.87085 114.33855 18975 ft 427 kts 158°
2026-05-06 03:23 33.84398 114.35388 19578 ft 434 kts 158°
2026-05-06 03:23 33.81622 114.36972 20262 ft 438 kts 158°
2026-05-06 03:24 33.78842 114.38558 20924 ft 443 kts 159°
2026-05-06 03:24 33.76020 114.40166 21612 ft 446 kts 159°
2026-05-06 03:24 33.73172 114.41788 22247 ft 450 kts 159°
2026-05-06 03:24 33.70337 114.43401 22819 ft 455 kts 159°
2026-05-06 03:25 33.67395 114.45074 23359 ft 461 kts 159°
2026-05-06 03:25 33.64478 114.46731 23922 ft 466 kts 159°
2026-05-06 03:25 33.61531 114.48404 24481 ft 470 kts 159°
2026-05-06 03:25 33.58576 114.50081 25038 ft 474 kts 159°
2026-05-06 03:26 33.55493 114.51829 25614 ft 478 kts 159°
2026-05-06 03:26 33.52420 114.53570 26139 ft 482 kts 159°
2026-05-06 03:26 33.49367 114.55298 26650 ft 487 kts 159°
2026-05-06 03:26 33.46297 114.57034 27143 ft 492 kts 159°
2026-05-06 03:27 33.43212 114.58778 27673 ft 496 kts 159°
2026-05-06 03:27 33.40081 114.60546 28264 ft 499 kts 159°
2026-05-06 03:27 33.36952 114.62312 28778 ft 503 kts 159°
2026-05-06 03:27 33.33752 114.64116 29354 ft 506 kts 159°
2026-05-06 03:28 33.30596 114.65895 30037 ft 506 kts 159°
2026-05-06 03:28 33.27385 114.67703 30712 ft 506 kts 159°
2026-05-06 03:28 33.24187 114.69328 31365 ft 502 kts 166°
2026-05-06 03:28 33.20819 114.70390 31971 ft 496 kts 175°
2026-05-06 03:29 33.17432 114.70821 32501 ft 491 kts 184°
2026-05-06 03:29 33.14002 114.70703 32984 ft 489 kts 188°
2026-05-06 03:29 33.10612 114.70425 33519 ft 489 kts 189°
2026-05-06 03:29 33.07229 114.70126 34181 ft 486 kts 189°
2026-05-06 03:30 33.03841 114.69819 34932 ft 482 kts 190°
2026-05-06 03:30 33.00531 114.69512 35565 ft 480 kts 190°
2026-05-06 03:30 32.97200 114.69197 35904 ft 482 kts 190°
2026-05-06 03:30 32.93821 114.68874 35905 ft 481 kts 190°
2026-05-06 03:31 32.87135 114.68232 35905 ft 481 kts 190°
2026-05-06 03:31 32.80491 114.67610 35912 ft 479 kts 190°
2026-05-06 03:32 32.73811 114.66984 35921 ft 479 kts 190°
2026-05-06 03:32 32.67195 114.66363 35920 ft 478 kts 190°
2026-05-06 03:33 32.60538 114.65737 35921 ft 478 kts 190°
2026-05-06 03:33 32.53893 114.65112 35924 ft 480 kts 190°
2026-05-06 03:34 32.47266 114.64490 35922 ft 478 kts 189°
2026-05-06 03:34 32.40624 114.63868 35922 ft 479 kts 189°
2026-05-06 03:35 32.34008 114.63237 35925 ft 477 kts 190°
2026-05-06 03:35 32.27360 114.62588 35927 ft 476 kts 190°
2026-05-06 03:36 32.20766 114.61945 35934 ft 477 kts 190°
2026-05-06 03:36 32.14161 114.61302 35939 ft 476 kts 189°
2026-05-06 03:37 32.07522 114.60658 35944 ft 476 kts 189°
2026-05-06 03:37 32.00927 114.60019 35951 ft 478 kts 189°
2026-05-06 03:38 31.94297 114.59377 35954 ft 480 kts 189°
2026-05-06 03:38 31.87532 114.58720 35949 ft 494 kts 189°
2026-05-06 03:39 31.80627 114.58053 35952 ft 505 kts 189°
2026-05-06 03:39 31.73600 114.57378 35940 ft 503 kts 189°
2026-05-06 03:40 31.66618 114.56708 35946 ft 504 kts 189°
2026-05-06 03:40 31.59608 114.56036 35950 ft 505 kts 189°
2026-05-06 03:41 31.52580 114.55365 35956 ft 505 kts 189°
2026-05-06 03:41 31.45579 114.54697 35950 ft 504 kts 189°
2026-05-06 03:42 31.38590 114.54031 35946 ft 504 kts 189°
2026-05-06 03:42 31.31634 114.53369 35946 ft 504 kts 189°
2026-05-06 03:43 31.24691 114.52261 35961 ft 498 kts 200°
2026-05-06 03:43 31.18329 114.49249 35951 ft 493 kts 210°
2026-05-06 03:44 31.12157 114.45841 35943 ft 491 kts 210°
2026-05-06 03:44 31.05941 114.42403 35941 ft 492 kts 210°
2026-05-06 03:45 30.99779 114.38998 35953 ft 490 kts 210°
2026-05-06 03:45 30.93603 114.35588 35948 ft 491 kts 210°
2026-05-06 03:46 30.87394 114.32271 35950 ft 492 kts 208°
2026-05-06 03:46 30.81165 114.29022 35953 ft 491 kts 208°
2026-05-06 03:47 30.74937 114.25665 35956 ft 492 kts 209°
2026-05-06 03:47 30.68688 114.22264 35960 ft 491 kts 209°
2026-05-06 03:48 30.62458 114.18881 35957 ft 492 kts 209°
2026-05-06 03:48 30.56227 114.15505 35956 ft 492 kts 210°
2026-05-06 03:49 30.50006 114.12140 35956 ft 491 kts 209°
2026-05-06 03:49 30.43745 114.08759 35951 ft 492 kts 210°
2026-05-06 03:50 30.37515 114.05400 35952 ft 493 kts 210°
2026-05-06 03:50 30.31279 114.02042 35952 ft 492 kts 210°
2026-05-06 03:51 30.25052 113.98695 35950 ft 492 kts 210°
2026-05-06 03:51 30.18794 113.95341 35951 ft 491 kts 210°
2026-05-06 03:52 30.12567 113.92009 35945 ft 492 kts 210°
2026-05-06 03:52 30.06375 113.88701 35942 ft 493 kts 210°
2026-05-06 03:53 30.00136 113.85372 35945 ft 494 kts 209°
2026-05-06 03:53 29.93879 113.82040 35953 ft 492 kts 209°
2026-05-06 03:54 29.87551 113.79046 35923 ft 499 kts 200°
2026-05-06 03:54 29.80580 113.77924 35934 ft 509 kts 188°
2026-05-06 03:55 29.73491 113.77457 35929 ft 508 kts 188°
2026-05-06 03:55 29.66385 113.76983 35959 ft 508 kts 188°
2026-05-06 03:56 29.59263 113.76498 35985 ft 509 kts 188°
2026-05-06 03:56 29.52204 113.76015 36007 ft 507 kts 188°
2026-05-06 03:57 29.45087 113.75525 36012 ft 508 kts 188°
2026-05-06 03:57 29.37974 113.75034 36006 ft 510 kts 188°
2026-05-06 03:58 29.30875 113.74544 35994 ft 508 kts 188°
2026-05-06 03:58 29.23750 113.74052 35992 ft 510 kts 188°
2026-05-06 03:59 29.16600 113.74078 35982 ft 513 kts 182°
2026-05-06 03:59 29.09420 113.74359 35996 ft 513 kts 182°
2026-05-06 04:00 29.02214 113.74610 35991 ft 512 kts 183°
2026-05-06 04:00 28.95061 113.74839 35994 ft 514 kts 183°
2026-05-06 04:01 28.87933 113.75057 35998 ft 514 kts 183°
2026-05-06 04:01 28.80740 113.75272 36000 ft 513 kts 183°
2026-05-06 04:02 28.73593 113.75436 36005 ft 511 kts 187°
2026-05-06 04:02 28.66499 113.74963 36014 ft 511 kts 188°
2026-05-06 04:03 28.59394 113.74434 36022 ft 510 kts 189°
2026-05-06 04:03 28.52301 113.73909 36025 ft 512 kts 189°
2026-05-06 04:04 28.45185 113.73386 36028 ft 510 kts 188°
2026-05-06 04:04 28.38077 113.72864 36017 ft 510 kts 189°
2026-05-06 04:05 28.30967 113.72343 36002 ft 512 kts 188°
2026-05-06 04:05 28.23861 113.71830 35994 ft 511 kts 189°
2026-05-06 04:06 28.16714 113.71307 35996 ft 514 kts 189°
2026-05-06 04:06 28.09602 113.70763 35995 ft 509 kts 189°
2026-05-06 04:07 28.02507 113.70131 36002 ft 510 kts 190°
2026-05-06 04:07 27.95412 113.69488 36004 ft 512 kts 190°
2026-05-06 04:08 27.88296 113.68849 36002 ft 511 kts 189°
2026-05-06 04:08 27.81208 113.68214 36000 ft 512 kts 189°
2026-05-06 04:09 27.74043 113.67575 35998 ft 512 kts 189°
2026-05-06 04:09 27.66936 113.66942 36004 ft 512 kts 189°
2026-05-06 04:10 27.59802 113.66491 36006 ft 515 kts 186°
2026-05-06 04:10 27.52601 113.66376 36001 ft 516 kts 186°
2026-05-06 04:11 27.45414 113.66248 36011 ft 515 kts 186°
2026-05-06 04:11 27.38230 113.66104 36017 ft 517 kts 186°
2026-05-06 04:12 27.30998 113.65954 36019 ft 516 kts 186°
2026-05-06 04:12 27.23795 113.65800 36019 ft 517 kts 186°
2026-05-06 04:13 27.16598 113.66176 36007 ft 524 kts 174°
2026-05-06 04:13 27.09479 113.68145 36033 ft 527 kts 169°
2026-05-06 04:14 27.02371 113.70258 36036 ft 528 kts 169°
2026-05-06 04:14 26.95243 113.72369 36036 ft 530 kts 169°
2026-05-06 04:15 26.88126 113.74471 36048 ft 528 kts 169°
2026-05-06 04:15 26.80990 113.76573 36067 ft 529 kts 169°
2026-05-06 04:16 26.73841 113.78674 36083 ft 529 kts 169°
2026-05-06 04:16 26.66784 113.80871 36087 ft 528 kts 168°
2026-05-06 04:17 26.59684 113.83106 36087 ft 528 kts 168°
2026-05-06 04:17 26.52582 113.85332 36086 ft 529 kts 168°
2026-05-06 04:18 26.45426 113.87502 36109 ft 529 kts 170°
2026-05-06 04:18 26.38298 113.89554 36131 ft 530 kts 170°
2026-05-06 04:19 26.31169 113.91606 36159 ft 529 kts 170°
2026-05-06 04:19 26.24042 113.93660 36184 ft 529 kts 170°
2026-05-06 04:20 26.16916 113.95712 36208 ft 528 kts 170°
2026-05-06 04:20 26.09748 113.97774 36213 ft 529 kts 169°
2026-05-06 04:21 26.02626 113.99822 36220 ft 528 kts 170°
2026-05-06 04:21 25.95512 114.01916 36205 ft 530 kts 169°
2026-05-06 04:22 25.88389 114.04038 36169 ft 530 kts 169°
2026-05-06 04:23 25.77613 114.07240 36134 ft 533 kts 169°
2026-05-06 04:23 25.70471 114.09356 36112 ft 533 kts 169°
2026-05-06 04:24 25.63272 114.11488 36124 ft 532 kts 169°
2026-05-06 04:24 25.56085 114.13612 36120 ft 533 kts 169°
2026-05-06 04:25 25.48898 114.15733 36120 ft 533 kts 169°
2026-05-06 04:25 25.41752 114.17840 36115 ft 532 kts 169°
2026-05-06 04:26 25.34570 114.19954 36104 ft 533 kts 169°
2026-05-06 04:26 25.27401 114.22062 36104 ft 533 kts 169°
2026-05-06 04:27 25.20204 114.24175 36097 ft 533 kts 169°
2026-05-06 04:27 25.13034 114.26148 36094 ft 529 kts 175°
2026-05-06 04:28 25.05763 114.26317 36096 ft 517 kts 193°
2026-05-06 04:28 24.98684 114.24913 36090 ft 512 kts 196°
2026-05-06 04:29 24.91656 114.23402 36097 ft 513 kts 196°
2026-05-06 04:29 24.84646 114.21888 36103 ft 513 kts 196°
2026-05-06 04:30 24.77611 114.20365 36113 ft 511 kts 196°
2026-05-06 04:30 24.70638 114.18854 36123 ft 514 kts 196°
2026-05-06 04:31 24.63631 114.17337 36117 ft 511 kts 196°
2026-05-06 04:31 24.56605 114.15816 36111 ft 512 kts 196°
2026-05-06 04:32 24.49590 114.14299 36107 ft 512 kts 196°
2026-05-06 04:32 24.42647 114.12799 36106 ft 512 kts 196°
2026-05-06 04:33 24.35677 114.10976 36124 ft 506 kts 205°
2026-05-06 04:33 24.29447 114.07468 36111 ft 499 kts 216°
2026-05-06 04:34 24.23520 114.03455 36096 ft 496 kts 217°
2026-05-06 04:34 24.17718 113.99413 36103 ft 489 kts 217°
2026-05-06 04:34 24.14889 113.97451 36111 ft 474 kts 218°
2026-05-06 04:35 24.12137 113.95537 36114 ft 465 kts 219°
2026-05-06 04:35 24.07184 113.91048 36118 ft 462 kts 227°
2026-05-06 04:36 24.02389 113.86321 36109 ft 460 kts 227°
2026-05-06 04:36 23.97619 113.81626 36101 ft 461 kts 227°
2026-05-06 04:37 23.92850 113.76942 35982 ft 456 kts 227°
2026-05-06 04:37 23.90498 113.74633 35630 ft 458 kts 227°
2026-05-06 04:37 23.88106 113.72285 35152 ft 461 kts 226°
2026-05-06 04:37 23.85706 113.69931 34727 ft 464 kts 226°
2026-05-06 04:38 23.83279 113.67551 34434 ft 464 kts 226°
2026-05-06 04:38 23.80884 113.65208 34232 ft 462 kts 226°
2026-05-06 04:38 23.78492 113.62866 34019 ft 461 kts 226°
2026-05-06 04:38 23.76077 113.60504 33720 ft 462 kts 226°
2026-05-06 04:39 23.73684 113.58164 33382 ft 463 kts 226°
2026-05-06 04:39 23.71278 113.55814 32841 ft 460 kts 225°
2026-05-06 04:39 23.68899 113.53490 32000 ft 460 kts 225°
2026-05-06 04:39 23.66519 113.51166 31150 ft 461 kts 225°
2026-05-06 04:40 23.64107 113.48814 30451 ft 457 kts 225°
2026-05-06 04:40 23.61766 113.46532 30015 ft 449 kts 225°
2026-05-06 04:40 23.59398 113.44222 29534 ft 462 kts 225°
2026-05-06 04:40 23.57011 113.41894 28991 ft 467 kts 225°
2026-05-06 04:41 23.54450 113.39663 28426 ft 467 kts 217°
2026-05-06 04:41 23.51646 113.37916 27877 ft 465 kts 208°
2026-05-06 04:41 23.48652 113.36617 27239 ft 463 kts 202°
2026-05-06 04:41 23.45613 113.35456 26643 ft 459 kts 202°
2026-05-06 04:42 23.42587 113.34309 26084 ft 453 kts 202°
2026-05-06 04:42 23.39622 113.33186 25520 ft 449 kts 202°
2026-05-06 04:42 23.36610 113.32043 24946 ft 444 kts 202°
2026-05-06 04:42 23.33692 113.30936 24380 ft 439 kts 202°
2026-05-06 04:43 23.30817 113.29845 23812 ft 434 kts 202°
2026-05-06 04:43 23.27963 113.28762 23252 ft 430 kts 202°
2026-05-06 04:43 23.25107 113.27679 22684 ft 426 kts 201°
2026-05-06 04:43 23.22296 113.26612 22110 ft 422 kts 202°
2026-05-06 04:44 23.19482 113.25545 21539 ft 418 kts 202°
2026-05-06 04:44 23.16750 113.24509 20964 ft 415 kts 201°
2026-05-06 04:44 23.13973 113.23537 20376 ft 412 kts 196°
2026-05-06 04:44 23.11108 113.23070 19812 ft 412 kts 185°
2026-05-06 04:45 23.08188 113.23183 19216 ft 411 kts 175°
2026-05-06 04:45 23.05390 113.23864 18621 ft 412 kts 164°
2026-05-06 04:45 23.02748 113.25088 18026 ft 412 kts 153°
2026-05-06 04:45 23.00369 113.26794 17389 ft 413 kts 143°
2026-05-06 04:46 22.98269 113.28992 16737 ft 414 kts 132°
2026-05-06 04:46 22.96578 113.31567 16113 ft 413 kts 122°
2026-05-06 04:46 22.95123 113.34312 15507 ft 412 kts 120°
2026-05-06 04:46 22.93748 113.37019 14901 ft 410 kts 120°
2026-05-06 04:47 22.92351 113.39700 14316 ft 407 kts 124°
2026-05-06 04:47 22.90564 113.42139 13715 ft 403 kts 136°
2026-05-06 04:47 22.88440 113.44098 13114 ft 399 kts 147°
2026-05-06 04:47 22.86028 113.45565 12522 ft 394 kts 159°
2026-05-06 04:48 22.83417 113.46500 11907 ft 389 kts 170°
2026-05-06 04:48 22.80749 113.46883 11288 ft 384 kts 180°
2026-05-06 04:48 22.78015 113.46954 10721 ft 379 kts 182°
2026-05-06 04:48 22.75405 113.46956 10555 ft 363 kts 183°
2026-05-06 04:49 22.72915 113.46931 10434 ft 347 kts 184°
2026-05-06 04:49 22.70510 113.46877 10303 ft 333 kts 185°
2026-05-06 04:49 22.68213 113.46787 10176 ft 320 kts 186°
2026-05-06 04:49 22.66025 113.46665 10039 ft 308 kts 186°
2026-05-06 04:50 22.63910 113.46524 9860 ft 300 kts 187°
2026-05-06 04:50 22.61795 113.46371 9608 ft 293 kts 187°
2026-05-06 04:50 22.59718 113.46541 9161 ft 299 kts 165°
2026-05-06 04:50 22.57885 113.47651 8798 ft 301 kts 138°
2026-05-06 04:51 22.56604 113.49397 8482 ft 301 kts 124°
2026-05-06 04:51 22.55542 113.51374 8076 ft 301 kts 120°
2026-05-06 04:51 22.54540 113.53385 7947 ft 291 kts 120°
2026-05-06 04:51 22.53587 113.55308 7848 ft 279 kts 120°
2026-05-06 04:52 22.52687 113.57115 7716 ft 271 kts 120°
2026-05-06 04:52 22.51770 113.58926 7372 ft 271 kts 121°
2026-05-06 04:52 22.50850 113.60744 7022 ft 272 kts 120°
2026-05-06 04:52 22.49929 113.62566 6687 ft 272 kts 120°
2026-05-06 04:53 22.49025 113.64358 6370 ft 271 kts 120°
2026-05-06 04:53 22.48274 113.66206 6047 ft 271 kts 112°
2026-05-06 04:53 22.47651 113.68133 5730 ft 269 kts 111°
2026-05-06 04:53 22.47041 113.70058 5420 ft 268 kts 111°
2026-05-06 04:54 22.46423 113.71987 5107 ft 267 kts 111°
2026-05-06 04:54 22.45808 113.73901 4794 ft 265 kts 111°
2026-05-06 04:54 22.45198 113.75794 4448 ft 259 kts 110°
2026-05-06 04:54 22.44658 113.77631 4170 ft 249 kts 100°
2026-05-06 04:55 22.44773 113.79446 3882 ft 237 kts 75°
2026-05-06 04:55 22.45356 113.81052 3656 ft 227 kts 68°
2026-05-06 04:55 22.46053 113.82603 3379 ft 220 kts 65°
2026-05-06 04:55 22.46754 113.84072 3119 ft 216 kts 65°
2026-05-06 04:56 22.47442 113.85497 2884 ft 208 kts 65°
2026-05-06 04:56 22.48083 113.86822 2873 ft 193 kts 65°
2026-05-06 04:56 22.48960 113.87883 2782 ft 188 kts 31°
2026-05-06 04:56 22.50218 113.88225 2669 ft 190 kts 359°
2026-05-06 04:57 22.51508 113.87852 2390 ft 190 kts 339°
2026-05-06 04:57 22.52685 113.87236 2129 ft 184 kts 335°
2026-05-06 04:57 22.53824 113.86602 2037 ft 185 kts 334°
2026-05-06 04:57 22.54940 113.85927 1762 ft 180 kts 335°
2026-05-06 04:58 22.56057 113.85332 1511 ft 170 kts 337°
2026-05-06 04:58 22.57077 113.84785 1282 ft 163 kts 336°
2026-05-06 04:58 22.58074 113.84242 1055 ft 160 kts 337°
2026-05-06 04:58 22.59066 113.83704 826 ft 158 kts 337°
2026-05-06 04:59 22.60056 113.83171 593 ft 157 kts 337°
2026-05-06 04:59 22.61039 113.82649 373 ft 156 kts 337°
2026-05-06 04:59 22.62002 113.82120 164 ft 154 kts 336°
2026-05-06 04:59 22.62967 113.81586 34 ft 152 kts 337°
2026-05-06 05:00 22.63810 113.81131 28 ft 114 kts 334°
2026-05-06 05:00 22.64381 113.80821 28 ft 69 kts 333°
2026-05-06 05:00 22.64643 113.80643 28 ft 24 kts 315°
2026-05-06 05:00 22.64744 113.80514 28 ft 19 kts 307°
2026-05-06 05:01 22.64817 113.80409 28 ft 16 kts 305°
2026-05-06 05:01 22.64848 113.80301 28 ft 15 kts 257°
2026-05-06 05:01 22.64821 113.80193 28 ft 14 kts 248°
2026-05-06 05:01 22.64764 113.80117 28 ft 13 kts 194°
2026-05-06 05:02 22.64688 113.80109 28 ft 5 kts 184°
2026-05-06 05:02 22.64679 113.80109 28 ft 0 kts 183°